TITAN 3C TRANSTAGE DEB, 26050

Orbit data source: Space-Track

TITAN 3C TRANSTAGE DEB, 26050 is space debris in HEO originally from a launch on Tue, 21 Dec 1965 UTC launched from the Air Force Eastern Test Range (AFETR). Debris objects in space refer to the collection of defunct objects orbiting the Earth. Examples of debris include non-operational satellites, rocket bodies, and fragments generated from explosions, collisions, or faulty payload assembly.

Loading next visibility...
TITAN 3C TRANSTAGE DEB details
Identifier
26050, 1965-108AJ
Orbit
HEO
Last TLE update2 months ago
Origin
Flag of USUSAF SSD (US)
ManufacturerUnknown
MissionSpacecraft
Bus & MotorUnknown
MassUnknown
Launch date (UTC)
1965-12-21 (59 years ago)
Launch vehicleUnknown
Launch site
Air Force Eastern Test Range (AFETR)
Object type
Payload
Rocket body
Debris
Shape & HBRUnknown
Radar Cross SectionMedium (>0.1 m² and <1 m²)

Expand to show TLE details & history

TLE from 2 months ago
0 TITAN 3C TRANSTAGE DEB
1 26050U 65108AJ  24286.27364345  .00000412  00000-0  40776-1 0  9991
2 26050  26.3748 105.7706 6596104 231.6597  48.5806  2.69822412249906
Epoch: 2024-10-12T06:34Z
Definitive object data (Epoch: 2024-10-12T06:34:02.794Z)
Latitude-0.00015°
Longitude-14.07744°
Altitude14,443.456 km
Speed4.472 km/s
True Right ascension07h 03m 03s
True Declination0° 00' 01"
Sunlit
Object was in daylight at TLE epoch
Visualization TLE readout
Latitude9.92619°
Longitude-17.46034°
Altitude9,720.874 km
Speed5.588 km/s
Apparent Right ascension07h 02m 28s
Apparent Declination-3° 36' 38"
Sunlit
Object is in daylight
Visualization observer readout
Local Sidereal Time19:44:35
Azimuth17.42° NNE
Elevation-52.465°
Doppler factor1
Orbital elements
Apogee altitude29,798.068 km
Perigee altitude1,041.679 km
Semi-major axis21,798.011 km
Eccentricity0.6596104
Inclination26.3748°
RAAN105.7706°
Arg. of periapsis231.6597°
True anomaly128.42394°
Mean anomaly48.5806°
Eccentric anomaly86.29448°
Mean motion0.6744 °/min
BSTAR0.040776
Orbital period533.81 mins
Loading maneuver chart data...

TITAN 3C TRANSTAGE DEB Visibility forecast

Observer location: undefined°, undefined

Span
Click to sort rows by Start time (UTC) header in descending order
Start Az.
Max El. time (UTC)
Max El. Az.
Max El.
End time (UTC)
End Az.
451 mins2024-12-14 05:43:53.848Z164.306° S2024-12-14 10:48:53.848Z95.831° ESE33.107°2024-12-14 13:14:53.848Z100.847° ESE
123 mins2024-12-14 16:46:53.848Z284.525° WNW2024-12-14 17:38:53.848Z286.091° WNW11.59°2024-12-14 18:49:53.848Z287.916° WNW
|